Theta_e
332 331 332 332 334 334 334 333 333 335 336 334 333 331 330 330 331 331 331 329 329 328 329 328 328 328 328 326 326 325 323 322 321 321 321 320 319 316 318 322 324 327 329 330 330 331 331 330 329 332 330 329 329 329 328 329 329 328 329 328 326 326 325 324 324 323 323 323 323 322 322 322 322 322 322 322 323 323 323 323 325 325 325 325 325
331 331 330 330 331 332 332 334 332 333 334 333 333 330 329 330 331 331 329 328 328 327 328 327 329 327 326 324 323 320 319 317 316 314 315 316 316 313 312 315 318 321 324 327 328 329 329 329 329 329 329 329 329 328 328 329 328 328 327 325 324 324 324 323 322 322 322 322 321 320 320 320 320 320 320 321 321 321 321 323 324 323 323 323 324
331 330 331 331 330 330 330 330 331 332 333 333 334 331 329 330 330 330 328 328 329 326 325 321 320 320 319 316 314 312 309 309 308 310 311 310 310 310 309 310 312 315 321 323 325 326 326 327 327 328 328 328 327 327 326 327 327 326 325 324 323 322 322 322 321 321 320 319 319 319 318 318 318 319 318 319 319 319 320 320 321 321 321 321 322
327 327 327 325 323 321 320 321 322 326 331 332 332 332 331 332 330 329 329 327 324 322 319 312 308 306 305 303 304 303 304 305 305 305 305 306 305 304 303 305 307 309 312 317 320 322 323 324 325 325 325 326 326 326 325 325 324 324 324 323 322 321 320 320 319 319 319 318 318 317 317 317 317 317 316 317 317 318 318 318 318 318 318 319 319
321 320 319 321 320 319 317 317 318 320 324 327 330 330 330 330 330 327 324 321 315 310 308 307 304 304 303 302 303 303 303 302 301 302 302 302 302 301 300 300 300 303 306 309 314 317 319 321 322 323 323 323 323 323 322 322 323 322 322 322 321 320 319 318 318 318 318 317 317 316 316 317 316 315 315 315 316 316 317 317 317 316 316 317 317
317 319 319 318 316 315 315 313 314 317 320 321 322 326 328 326 323 322 315 311 309 307 304 303 303 303 303 302 302 302 302 301 301 301 301 300 299 298 298 297 296 296 297 302 306 310 314 317 318 319 320 321 321 322 322 322 322 321 321 321 320 319 319 317 316 316 316 316 315 315 315 315 314 314 314 314 315 315 315 315 315 315 315 315 316
310 314 315 316 315 314 314 313 313 313 315 316 316 315 316 317 315 309 308 306 305 304 302 301 301 300 301 301 300 300 300 299 299 299 300 300 300 298 296 295 295 294 293 293 298 303 307 311 314 315 317 318 319 320 320 319 320 320 320 319 319 318 318 317 316 315 315 315 315 314 314 314 314 314 313 314 314 314 314 314 314 314 314 314 315
306 309 309 311 312 311 310 310 311 311 311 313 313 313 311 308 309 307 304 302 301 300 301 299 299 298 299 299 298 298 298 297 297 297 298 299 299 300 296 294 293 293 293 291 291 296 301 304 307 310 312 313 314 315 316 317 317 317 318 318 317 317 316 316 314 313 313 313 313 313 313 313 313 314 313 313 313 313 313 313 313 313 313 313 313
303 305 306 307 308 307 308 309 309 309 309 311 312 312 308 305 304 304 302 299 298 298 298 298 296 296 297 296 297 297 296 296 296 297 297 296 297 298 296 294 293 293 292 291 291 290 294 297 300 304 306 307 309 312 313 315 315 315 315 316 315 315 315 314 313 312 312 312 312 311 312 312 312 312 312 312 312 312 312 312 312 312 312 312 313
301 303 304 304 305 305 306 307 307 308 308 309 309 310 309 306 304 304 303 300 298 297 296 296 296 295 295 295 295 295 295 295 296 296 296 295 295 296 297 296 294 292 291 291 290 290 291 292 294 296 299 301 305 309 311 312 313 313 313 313 313 314 313 314 313 312 311 310 311 310 310 311 311 311 311 311 311 311 311 311 311 311 311 312 312
299 300 302 302 303 304 304 305 306 306 306 305 306 305 305 304 302 301 301 300 298 297 296 295 294 294 294 294 295 295 296 296 296 295 295 295 295 295 296 296 296 295 291 290 290 289 290 290 290 291 292 296 300 303 307 308 309 311 312 312 312 312 312 312 312 311 310 310 310 310 310 310 310 310 310 310 310 310 310 310 310 310 310 311 311
298 299 300 300 300 301 302 303 304 306 306 305 304 303 302 300 299 298 296 296 297 296 295 293 292 292 291 292 293 293 293 295 295 295 296 296 296 297 297 297 294 291 290 289 289 289 289 290 290 290 290 292 295 298 301 304 306 309 310 311 311 312 312 312 312 311 310 310 309 309 310 310 309 310 310 310 310 310 310 310 310 310 310 310 310
297 297 298 298 299 300 301 301 303 304 304 303 304 303 302 300 299 298 296 294 294 295 295 294 290 289 292 292 293 294 294 294 293 295 294 293 292 291 291 290 290 289 288 288 288 288 288 288 289 289 290 291 291 294 297 300 302 305 307 308 310 311 311 312 312 310 309 309 309 309 309 309 309 309 309 309 309 309 309 309 309 310 310 310 310
296 296 297 298 298 298 299 300 302 302 302 302 302 302 301 300 299 297 299 295 293 295 296 298 293 290 288 289 289 289 289 289 288 288 289 289 289 289 289 289 289 289 288 288 287 287 287 288 288 288 288 289 289 290 292 295 298 302 305 306 307 309 310 311 311 310 308 307 307 308 308 308 308 308 308 308 308 308 308 308 308 309 309 309 309
294 295 295 296 297 298 298 299 300 301 301 301 301 301 300 300 300 297 295 297 295 297 298 300 292 291 290 289 287 286 287 287 288 287 287 288 288 288 288 288 288 288 288 287 287 286 287 287 287 287 287 287 287 287 289 291 295 300 303 303 305 307 308 309 310 309 308 307 307 307 307 307 307 307 307 307 307 307 307 307 308 308 308 308 308
293 293 295 296 295 297 298 297 297 299 300 300 300 300 300 299 299 297 296 293 295 295 297 300 294 295 293 293 289 287 283 283 284 286 287 287 287 287 287 287 287 288 288 287 286 287 286 286 286 286 287 286 286 287 288 290 293 297 300 302 302 305 306 307 309 309 307 306 306 306 306 306 306 306 307 307 307 307 307 307 307 307 307 307 308
292 291 292 291 292 293 294 294 294 295 297 298 298 298 299 300 300 299 299 296 294 294 295 297 297 296 298 291 290 289 288 285 284 284 286 286 286 286 287 286 286 287 287 287 287 286 286 286 286 286 286 286 287 287 287 289 291 294 296 300 302 303 304 306 308 308 307 306 305 305 305 305 305 306 306 306 306 306 306 306 306 306 306 307 307
290 290 290 290 290 291 291 291 292 292 293 295 296 297 297 299 299 300 299 299 295 293 291 293 293 295 296 299 300 298 287 285 287 282 284 285 285 285 285 286 286 286 287 287 287 287 286 286 286 286 286 287 287 287 287 288 291 292 294 296 300 302 303 304 306 307 306 305 304 304 304 304 305 305 305 305 305 305 305 305 305 305 305 306 306
290 291 291 290 290 290 290 290 290 290 291 291 291 291 292 294 296 298 298 298 296 293 292 291 292 292 293 293 297 299 291 287 291 283 282 283 285 285 285 286 286 286 286 286 287 287 287 287 287 287 287 287 287 287 288 288 289 291 293 296 298 300 301 302 304 305 305 304 304 303 303 303 304 304 304 304 304 304 304 305 305 305 305 305 305
290 291 291 291 291 291 292 291 290 290 290 289 289 290 291 292 292 294 295 296 297 295 293 292 291 289 290 292 293 294 294 296 293 289 288 281 281 284 285 285 286 286 286 286 286 286 287 287 287 287 287 288 287 287 288 288 289 290 289 293 295 297 299 302 303 304 304 304 303 302 302 302 303 303 303 303 303 303 304 304 304 304 304 304 305
290 290 291 291 292 292 292 292 292 291 291 290 290 291 291 292 292 292 293 293 293 292 291 290 290 289 290 291 292 291 292 294 294 293 286 283 282 282 283 285 286 286 286 287 287 288 287 287 287 287 287 287 287 287 287 287 287 289 289 291 293 295 297 299 301 302 303 303 302 302 301 302 302 303 302 302 302 303 303 303 303 303 304 303 303
289 290 290 291 292 292 292 292 292 292 291 291 290 290 290 290 291 291 291 291 292 292 291 290 291 292 292 293 291 290 291 291 290 290 289 289 284 284 284 284 283 285 287 286 286 287 287 287 287 288 287 288 288 288 287 287 287 287 288 289 291 293 295 298 299 301 302 301 301 301 301 301 302 302 302 302 302 302 302 303 303 303 303 303 303
290 290 290 291 291 292 292 292 292 292 291 291 291 291 290 290 290 290 290 290 290 290 290 290 290 290 291 291 291 291 290 289 289 289 288 287 286 285 286 287 287 285 286 287 287 287 287 288 288 287 287 287 288 288 287 287 286 286 287 288 290 291 293 296 298 300 300 300 300 300 300 300 301 301 301 301 301 302 302 302 302 302 302 302 302
292 291 291 292 292 292 292 293 292 292 291 292 292 292 291 292 291 290 290 290 291 290 291 290 290 290 290 290 290 291 291 291 291 291 290 288 288 286 285 286 286 287 288 287 288 287 288 288 288 287 287 287 287 287 287 287 286 286 286 287 288 289 291 294 296 298 299 299 299 299 299 299 300 300 300 301 301 301 301 301 301 301 301 301 301
290 290 291 291 292 292 292 292 291 292 292 292 292 292 292 292 291 291 291 291 290 290 289 290 290 289 288 289 290 290 289 290 291 291 291 291 289 286 286 287 286 286 287 287 287 288 288 288 289 288 288 288 288 288 288 288 287 286 285 286 287 288 289 291 294 296 297 298 298 298 298 298 299 300 300 300 300 300 300 300 300 300 300 300 300
290 290 290 291 291 292 292 291 292 292 292 292 292 292 292 291 291 290 290 290 290 290 289 289 289 289 289 288 288 288 288 289 289 290 290 289 288 286 285 285 286 286 287 286 287 286 288 288 289 288 288 287 287 288 288 287 287 286 285 286 287 287 288 290 292 294 295 297 297 298 298 298 298 299 299 299 299 299 299 299 299 299 299 299 299
290 290 290 291 291 292 292 291 291 291 292 291 292 292 292 291 291 290 290 290 290 290 289 289 289 289 289 288 288 287 287 288 289 289 290 290 289 288 287 285 284 285 285 287 287 286 287 288 288 288 288 288 287 288 288 287 287 285 285 287 287 286 286 288 289 291 293 294 296 296 297 297 297 298 298 298 298 298 298 298 298 298 298 298 299
290 290 290 291 291 291 291 291 291 291 291 291 291 291 292 291 290 290 289 291 290 290 289 290 289 289 288 289 288 287 288 288 288 288 289 290 290 290 289 288 286 284 286 285 286 287 289 287 288 288 288 287 288 288 288 287 288 286 286 287 287 287 286 287 288 290 291 292 294 295 296 296 297 297 297 297 297 298 297 297 297 297 298 298 298
291 290 290 290 290 291 290 290 290 290 290 290 291 291 291 290 290 290 289 290 290 290 290 289 289 289 289 289 288 288 288 288 288 288 288 288 289 288 289 287 287 285 284 284 286 286 288 287 286 288 288 288 288 289 288 288 288 285 286 286 286 287 286 286 287 289 290 290 292 293 294 295 296 297 297 297 298 298 297 297 297 297 298 298 298
291 291 290 290 290 289 290 290 290 290 290 290 290 290 290 289 290 289 290 290 289 289 289 289 289 289 288 289 289 288 288 288 288 288 288 288 288 288 287 287 287 285 285 283 284 287 287 288 287 287 288 288 288 288 289 288 288 285 286 286 286 286 285 285 286 287 288 289 289 290 292 293 295 296 296 296 297 297 297 297 297 297 297 297 296
290 290 290 290 290 290 290 290 290 290 290 290 289 290 290 289 289 289 289 289 289 289 289 289 289 289 288 288 288 288 288 288 288 288 288 288 287 287 287 287 287 287 285 285 282 286 288 286 288 288 287 288 289 288 288 289 288 286 286 286 286 286 285 285 285 286 287 288 288 288 290 292 293 294 295 295 296 296 296 296 296 296 295 295 294
290 291 290 290 290 290 290 290 290 290 289 290 290 289 289 289 289 289 289 289 289 289 289 289 289 289 288 288 288 288 288 288 288 288 288 288 288 287 287 287 287 287 286 285 283 283 288 287 288 289 289 288 288 287 287 288 288 286 286 286 286 285 285 285 285 285 285 286 286 287 287 288 290 292 293 294 293 294 294 294 294 294 293 292 291
290 290 290 290 290 290 290 289 289 289 290 289 290 289 289 289 289 289 289 288 288 289 289 288 289 289 288 288 288 288 289 288 288 289 288 288 288 287 288 287 286 287 286 285 283 283 286 289 288 288 288 288 287 288 287 287 287 287 286 286 286 286 285 285 285 285 285 285 286 286 286 287 288 289 290 290 291 291 291 292 291 290 290 289 289
290 290 289 290 290 290 289 289 289 289 289 289 290 290 289 289 289 290 289 288 288 288 288 288 288 289 288 288 288 288 289 288 288 288 288 288 288 287 287 287 286 287 287 285 284 283 283 286 287 288 287 288 285 288 286 286 286 286 285 286 286 286 285 285 284 285 284 284 285 285 286 286 286 287 287 288 289 289 288 288 287 287 288 288 288
290 290 290 290 290 289 289 289 289 289 289 289 289 289 289 289 289 289 289 289 288 288 288 288 288 289 288 288 288 288 289 288 288 288 288 288 288 287 287 287 287 287 287 287 285 283 283 284 287 286 286 287 286 286 287 287 286 286 285 285 285 285 285 285 284 284 284 284 284 285 285 285 286 286 286 286 286 287 287 287 287 287 287 287 287
290 290 290 290 290 289 289 289 289 289 289 289 289 289 289 289 289 289 289 289 289 289 289 289 289 289 288 288 288 289 289 288 288 288 288 288 288 287 287 288 287 287 287 287 287 285 284 283 285 285 286 285 286 287 287 286 285 285 285 285 285 284 284 285 284 284 284 284 284 284 285 285 285 285 285 285 286 286 286 286 286 286 286 286 286
290 290 290 290 289 289 289 288 289 288 289 289 289 289 289 289 289 289 289 289 289 289 289 289 289 289 289 288 288 289 289 288 288 288 288 288 288 287 287 287 287 287 287 287 287 286 284 283 284 286 286 285 286 286 286 284 284 284 284 284 284 284 284 284 284 284 283 283 283 283 284 284 284 284 284 285 285 285 285 285 285 285 285 285 285
290 290 289 289 289 288 289 289 289 289 289 289 289 288 289 289 289 289 289 289 289 289 289 289 289 289 289 289 289 289 288 288 287 288 288 288 288 287 287 287 287 287 287 287 286 286 285 284 284 284 285 284 284 284 285 285 283 282 283 283 284 283 283 282 283 283 283 283 283 283 283 283 283 284 284 284 285 285 285 284 284 284 284 284 284
289 289 289 289 289 289 289 289 289 289 289 289 289 289 288 289 288 288 288 288 288 288 289 289 289 289 289 289 289 289 288 288 288 288 288 288 288 287 287 287 287 287 286 286 286 285 285 284 284 284 284 285 284 282 285 285 283 282 281 281 281 283 283 282 281 282 283 282 283 283 283 283 283 283 283 284 284 284 284 284 283 283 283 283 283
288 288 289 288 289 289 288 289 289 289 289 289 289 288 288 288 288 288 288 288 288 288 288 288 288 288 288 288 288 289 289 289 288 288 288 288 288 287 288 287 287 286 285 285 285 284 284 284 283 283 284 283 284 284 284 283 281 281 282 281 279 280 280 281 281 280 282 282 281 282 283 283 283 283 283 283 283 283 283 283 282 282 282 282 282
289 289 289 289 288 288 288 288 288 289 288 288 289 288 288 288 288 288 288 287 287 287 287 288 288 288 288 288 288 288 289 288 287 287 288 288 288 287 287 287 287 286 285 285 285 284 284 284 283 284 283 283 283 282 282 281 281 281 282 281 279 280 280 280 280 282 281 281 281 282 282 282 281 281 281 281 281 281 281 281 281 281 281 281 281
288 288 288 288 288 288 288 288 288 288 288 288 287 287 288 288 288 288 288 287 287 287 287 287 287 287 287 288 288 286 286 285 285 286 286 287 286 286 286 287 286 286 285 285 284 284 284 283 283 283 282 282 283 283 282 282 283 282 281 280 278 279 279 278 279 281 282 281 280 279 280 282 281 280 280 279 280 280 280 279 279 279 280 281 281
288 287 287 287 287 287 287 287 287 288 288 288 287 288 288 288 287 287 287 287 287 287 286 286 286 287 287 287 287 287 286 285 285 285 286 286 286 286 286 286 286 286 285 284 284 284 284 283 284 283 283 282 283 283 282 282 282 281 280 279 279 278 277 276 275 279 282 280 279 278 278 280 280 278 278 278 279 279 279 279 280 280 280 281 281
288 287 287 287 287 287 287 287 287 287 288 287 288 287 288 288 287 287 287 287 287 287 286 286 286 286 287 287 287 288 287 287 287 286 285 285 286 286 286 286 286 286 286 285 284 284 284 283 283 283 283 282 282 283 282 281 281 280 280 279 278 277 277 276 276 275 280 281 278 276 276 279 279 278 276 277 278 278 278 279 280 280 281 281 281
288 287 287 287 287 287 287 286 286 286 287 287 288 288 287 288 288 287 287 287 287 286 286 286 286 286 286 287 287 287 288 285 285 286 286 286 286 286 286 286 286 287 287 287 286 285 285 284 283 283 283 283 282 282 282 281 281 278 278 278 278 278 277 276 277 277 279 280 277 275 274 276 277 275 275 276 277 278 278 278 279 279 280 280 280
288 287 287 287 287 287 287 286 286 286 287 287 288 288 287 287 288 288 288 288 288 287 287 287 287 287 287 286 286 286 287 287 286 286 286 285 286 286 286 286 286 286 286 287 287 286 285 285 284 283 284 283 281 282 282 281 279 278 278 277 278 277 277 277 278 278 278 279 276 275 273 274 276 275 274 275 277 276 277 278 279 279 279 279 279
288 288 288 287 287 287 287 286 286 286 286 287 288 288 287 287 288 288 288 288 288 288 288 288 287 287 287 287 287 286 287 287 287 286 286 286 286 286 285 285 286 286 286 287 287 286 286 285 285 284 283 283 282 281 281 281 280 280 280 279 279 278 278 278 277 278 278 279 277 275 270 273 275 273 273 274 275 275 276 277 278 278 278 279 279
289 288 288 289 288 288 287 286 286 285 286 287 287 287 287 287 288 288 288 288 288 288 288 288 288 288 288 288 287 287 287 287 286 286 286 286 286 285 285 285 285 286 286 287 287 287 287 286 284 283 282 282 281 281 281 281 280 281 280 280 279 277 276 275 274 275 274 277 277 274 271 271 274 272 272 274 274 274 275 275 276 277 278 278 278
288 288 287 287 287 287 287 286 286 285 286 286 287 287 287 287 287 287 287 288 288 288 287 288 288 288 288 288 288 287 287 287 287 287 287 285 284 284 284 284 284 284 284 283 282 282 282 282 282 282 282 282 282 282 282 283 281 280 279 277 275 276 274 271 271 272 272 274 275 274 272 270 272 272 271 273 273 272 272 273 274 276 276 277 277
288 288 288 287 287 287 286 286 286 285 285 286 286 287 287 287 287 287 287 287 287 287 287 288 288 288 288 286 286 287 287 286 287 287 287 286 284 283 283 283 282 281 281 281 280 281 282 282 282 282 281 281 281 281 280 280 278 278 278 274 275 275 272 271 270 271 272 273 273 274 271 270 272 272 270 271 271 271 272 272 273 273 275 275 275
289 289 288 286 286 286 286 286 285 285 285 285 286 287 287 287 286 287 287 287 286 286 286 286 287 287 287 286 285 285 286 286 287 287 287 286 285 284 283 282 281 280 280 280 279 278 278 278 278 279 279 279 279 279 279 277 276 276 277 275 274 273 271 271 271 270 268 270 273 274 269 269 270 270 270 267 266 269 271 271 271 271 271 271 271
Wind_Speed
8 9 6 7 6 6 5 5 7 5 6 6 5 7 7 8 5 4 5 5 5 5 5 4 4 4 5 5 6 6 5 5 4 4 5 6 7 12 17 19 17 18 17 15 15 13 13 15 15 17 17 18 17 18 19 18 18 18 19 18 17 17 16 16 16 15 15 15 16 17 16 16 16 15 15 15 16 16 16 16 17 17 17 17 18
8 5 6 5 5 4 5 5 5 6 6 6 6 7 7 6 6 5 5 5 4 5 5 5 3 4 5 5 5 6 6 5 5 5 5 6 7 10 20 19 20 20 17 16 16 17 17 17 17 16 17 18 18 18 18 19 18 19 19 18 17 16 16 16 16 15 15 15 15 15 15 15 15 15 16 16 15 15 15 15 14 15 17 17 17
6 5 3 3 1 1 2 2 3 5 6 6 6 8 8 8 7 8 7 7 5 5 6 7 6 5 6 7 6 6 6 6 6 5 6 6 6 7 12 21 21 22 18 16 17 18 19 17 18 18 18 17 16 17 17 18 19 19 19 18 17 17 16 16 15 15 15 15 15 15 15 15 15 15 15 15 15 14 13 12 13 16 17 17 18
6 6 4 4 3 4 4 4 3 3 3 4 5 8 7 6 7 8 7 6 6 7 7 8 8 8 8 9 8 7 7 6 6 6 6 6 7 7 7 9 19 22 22 20 18 18 17 18 18 17 15 15 16 16 16 17 17 17 17 17 18 18 17 15 15 15 15 15 15 14 14 14 14 14 14 14 13 13 13 14 15 15 17 18 17
6 8 5 4 4 4 4 4 4 3 1 3 6 6 6 8 7 6 7 7 8 8 9 8 10 9 9 9 8 9 8 7 7 8 8 7 7 7 7 7 7 15 22 22 20 18 17 17 17 16 16 15 14 14 15 14 14 14 15 17 17 16 16 15 15 15 15 15 14 14 14 14 14 13 13 13 13 13 13 14 14 15 15 16 17
6 7 6 5 5 4 5 6 5 5 4 3 5 4 9 7 6 6 8 8 8 7 10 11 9 9 9 9 9 8 7 8 8 8 8 8 7 7 7 7 7 7 8 18 21 19 18 17 17 17 16 16 15 16 16 14 12 13 13 14 15 16 15 15 15 15 15 15 14 14 13 13 13 12 12 12 12 13 13 14 14 14 15 15 16
9 6 5 3 4 4 6 7 7 8 5 5 9 10 6 7 6 10 9 8 8 8 11 10 9 9 8 8 9 8 8 8 8 9 8 7 8 8 8 7 7 7 7 6 13 20 20 20 18 17 16 17 18 16 15 14 14 13 14 14 14 15 15 15 15 14 14 14 14 14 13 13 13 13 13 13 13 13 13 13 14 14 14 15 15
9 7 6 6 6 6 4 5 7 10 8 5 8 8 9 11 8 6 12 9 10 11 9 10 11 10 7 9 8 8 8 8 9 9 8 7 7 7 7 8 8 8 7 6 6 11 19 19 19 19 19 19 17 16 14 13 14 14 13 14 14 14 14 14 15 14 14 14 14 13 12 12 12 12 13 13 13 13 14 14 14 14 14 14 15
8 9 8 7 6 5 5 6 6 10 9 6 9 5 10 12 10 8 8 12 13 13 9 8 10 9 9 9 8 8 8 8 8 7 7 9 8 8 8 8 8 8 6 6 6 5 12 16 18 20 20 19 17 17 15 15 13 13 12 12 13 13 13 14 13 14 14 14 14 14 13 13 12 13 13 13 13 13 14 14 14 14 14 14 14
9 9 8 8 6 5 8 8 7 8 10 8 9 8 6 11 11 7 5 12 12 10 10 9 9 9 9 9 8 8 8 7 7 7 7 8 7 7 6 6 7 7 7 6 7 7 6 9 12 16 20 18 16 16 18 18 17 15 14 12 11 12 12 12 12 13 13 13 13 13 13 13 12 12 13 13 13 13 14 14 14 14 14 15 15
9 10 9 7 7 8 9 7 6 8 9 10 8 9 10 10 12 10 9 9 8 11 12 12 11 10 10 9 8 9 7 6 6 7 7 7 7 7 5 6 5 5 7 7 6 7 7 7 7 7 9 17 16 18 20 19 18 17 15 13 11 10 11 11 12 12 13 13 12 12 12 12 12 12 12 13 13 14 14 14 14 14 14 15 15
9 11 9 7 6 6 8 7 7 8 9 8 7 9 13 14 10 12 13 12 9 8 9 13 13 12 11 9 9 8 9 7 7 6 5 5 5 4 4 4 5 6 7 7 7 7 7 7 7 7 6 9 15 15 17 19 19 19 16 13 12 11 11 10 11 12 13 13 13 13 12 12 12 12 12 12 13 13 13 14 14 14 14 14 15
12 11 11 9 6 6 6 8 7 9 10 10 8 11 11 12 11 9 13 13 9 7 8 8 13 11 8 9 8 7 7 8 8 6 6 5 4 4 4 5 5 6 6 6 7 7 7 7 7 6 6 5 6 11 14 17 18 17 16 15 13 11 11 11 11 12 12 13 13 13 13 12 12 12 12 13 13 13 13 13 14 14 14 14 14
10 10 9 9 6 5 6 6 9 9 11 11 11 11 11 9 10 11 6 10 9 7 7 4 5 8 8 6 7 7 7 8 8 8 6 6 5 5 5 6 6 5 5 5 6 7 8 8 7 7 7 6 7 6 7 8 10 15 16 16 14 12 11 11 11 12 12 12 13 13 13 13 12 12 12 13 13 13 13 13 14 14 14 14 15
9 9 8 8 8 6 6 6 7 6 8 10 10 9 9 8 6 9 9 6 6 2 0 2 7 8 8 8 5 4 4 6 7 8 7 7 6 6 5 5 6 4 4 4 5 6 7 7 6 6 6 6 5 6 6 6 9 13 17 17 15 14 12 11 12 12 12 12 13 13 13 13 13 13 13 13 13 14 14 14 14 14 15 14 15
10 10 6 6 6 4 4 6 6 6 6 8 8 8 7 7 8 7 10 10 3 3 4 3 7 6 4 2 4 5 6 3 5 5 6 7 6 5 4 4 4 4 3 4 5 5 5 5 6 6 6 6 6 5 5 6 9 11 14 16 15 14 14 12 12 12 12 12 12 13 13 14 13 13 13 13 14 14 14 14 15 15 15 15 15
10 9 6 5 5 6 7 7 7 6 6 7 7 7 6 5 5 5 4 7 7 3 3 2 2 3 3 7 3 1 1 6 6 4 3 4 6 5 4 4 3 3 3 3 3 4 4 5 5 5 5 5 6 5 5 6 6 6 9 14 16 15 14 13 13 13 12 12 12 13 13 14 14 14 14 14 14 14 14 14 14 14 15 15 15
8 5 4 5 7 8 8 7 7 6 6 6 6 6 6 5 3 3 5 4 7 8 6 0 3 3 3 3 1 2 8 7 4 3 4 4 3 4 3 3 2 2 2 2 3 3 2 3 4 4 5 5 5 5 5 6 7 6 7 11 17 16 14 14 13 13 13 13 13 13 14 14 14 14 14 14 15 15 15 15 15 15 15 15 15
7 7 7 7 7 8 8 8 7 7 6 6 6 6 4 4 3 3 4 6 7 8 7 4 2 2 3 3 1 1 8 10 5 7 4 2 2 2 1 0 1 2 2 2 2 2 2 2 3 3 4 4 4 4 4 5 7 7 11 16 16 16 15 14 13 12 13 13 13 13 13 14 15 15 15 15 15 15 16 16 16 16 16 16 16
7 8 8 8 8 8 8 7 7 7 6 6 5 5 5 4 4 4 3 3 4 7 7 5 4 2 1 3 5 8 7 1 9 5 6 8 4 2 2 2 1 1 1 1 2 1 1 1 2 2 3 4 4 4 4 5 5 6 7 15 16 15 15 14 14 13 13 13 13 14 14 14 15 15 15 15 16 16 16 16 16 16 16 16 16
8 8 8 8 8 7 7 7 7 7 6 6 6 6 6 5 5 4 4 3 4 4 4 3 4 5 5 5 6 6 3 4 4 3 4 6 5 6 5 3 2 3 2 1 1 1 1 1 1 2 2 3 4 4 5 5 5 6 7 13 14 15 15 15 15 14 14 14 14 14 15 15 15 15 15 15 16 16 16 16 16 16 16 16 16
7 8 7 8 7 7 6 7 7 6 6 6 6 7 7 6 6 5 5 5 4 4 4 4 3 2 2 5 5 5 5 4 3 4 4 3 6 7 6 6 5 4 3 2 2 1 1 1 1 1 2 3 3 4 5 4 5 5 8 12 14 15 15 16 15 15 15 15 15 16 15 16 16 16 16 16 16 17 17 17 17 17 17 16 17
4 5 6 6 6 6 5 5 5 5 5 5 5 5 5 5 5 6 6 5 4 4 5 4 3 3 2 1 3 3 3 5 6 5 4 5 6 5 5 4 3 5 4 3 3 2 1 0 0 0 1 2 3 3 3 3 3 7 10 10 13 15 16 17 17 16 16 16 16 16 16 16 16 17 17 17 17 17 18 18 18 18 18 17 17
5 5 6 7 5 5 5 5 5 5 5 5 5 4 4 4 4 4 5 5 4 4 4 4 4 4 4 3 2 2 3 3 2 2 3 5 5 6 5 4 2 2 2 2 2 2 3 2 2 1 1 0 1 2 2 3 3 8 9 9 11 13 14 15 16 15 15 16 16 16 16 16 16 17 17 17 18 18 18 18 18 18 18 18 18
5 5 5 7 5 5 6 5 5 5 5 5 5 5 4 4 5 5 4 4 4 3 4 4 3 3 3 3 3 4 4 4 3 3 3 3 5 6 3 1 2 3 2 1 2 3 3 3 2 1 1 0 1 3 3 4 5 7 10 8 11 11 13 15 16 16 16 16 17 17 17 18 17 18 18 18 18 18 18 19 19 19 19 18 19
3 3 4 5 4 4 5 5 5 5 5 5 5 5 5 4 4 4 5 4 4 5 5 5 5 5 4 4 5 5 5 5 5 4 4 3 3 4 4 2 1 2 2 2 2 2 4 3 2 2 2 1 1 2 4 4 5 6 9 8 7 8 11 13 14 15 16 16 17 17 17 17 18 18 18 19 18 19 19 19 19 19 19 19 19
1 2 3 3 4 4 4 4 4 4 4 4 4 4 4 4 4 4 4 4 4 4 4 5 5 5 6 5 4 4 4 4 4 4 3 3 3 4 4 4 3 2 2 2 2 4 2 3 3 3 3 1 1 2 3 4 4 2 6 6 5 7 8 11 13 14 15 16 16 17 17 17 17 18 18 19 19 19 19 19 19 19 19 19 19
0 1 1 2 2 2 2 3 3 3 3 3 3 3 3 3 3 3 4 2 3 5 4 5 5 5 5 4 4 4 3 3 3 3 3 3 3 2 1 0 1 2 3 3 3 3 4 2 3 4 3 3 2 2 2 4 3 4 7 5 5 6 6 10 13 14 15 16 16 17 18 18 18 18 18 18 19 19 19 19 19 19 19 19 19
2 2 2 2 1 0 1 1 1 2 2 2 2 2 2 2 3 3 3 3 3 3 3 3 4 3 3 3 4 3 3 3 3 3 3 2 2 2 2 2 2 1 2 2 2 2 3 4 2 2 4 3 3 3 4 4 2 2 5 5 5 6 7 11 14 14 14 15 16 17 18 18 18 19 19 19 19 20 19 19 19 19 20 20 20
2 2 2 3 3 2 2 2 2 2 2 2 2 2 2 2 2 2 2 2 3 3 3 3 3 3 3 2 3 3 3 2 2 2 2 2 2 1 1 1 1 1 2 3 5 3 3 3 3 3 3 3 3 4 4 5 3 3 5 6 6 6 8 12 13 13 13 15 15 16 17 18 19 19 19 20 20 20 19 19 19 19 19 20 20
4 3 4 4 3 3 3 3 3 3 3 3 3 3 2 3 3 3 3 2 2 3 2 2 2 3 3 3 2 3 3 3 3 3 2 2 2 2 2 2 1 2 2 3 5 4 2 4 3 4 5 5 4 5 5 5 4 4 6 6 6 6 10 10 10 11 13 13 14 15 16 18 19 19 19 20 19 19 19 19 19 19 19 19 19
5 4 4 5 4 4 4 3 3 3 3 3 3 3 3 3 3 3 3 3 3 3 3 3 2 3 4 4 4 3 3 3 3 3 3 3 3 3 3 3 3 3 3 4 6 8 5 5 6 5 5 5 5 6 7 5 4 8 6 6 6 7 7 6 8 11 12 13 13 15 17 18 19 19 19 19 19 19 19 19 19 19 19 19 19
5 6 6 6 6 6 5 5 5 5 5 4 4 4 4 3 3 3 4 4 4 4 3 4 4 4 4 4 4 4 4 4 4 4 4 4 4 4 4 4 4 5 5 6 7 9 8 6 6 6 5 5 6 7 7 6 6 5 5 6 6 6 6 6 6 10 11 12 13 15 17 18 18 18 18 18 18 18 18 18 18 18 18 19 20
7 7 8 7 6 7 7 7 7 6 6 6 5 5 5 5 5 3 4 5 6 5 5 5 6 5 5 6 6 6 6 6 5 6 5 5 5 6 6 6 6 6 7 7 8 8 10 7 7 6 6 5 7 6 7 7 7 6 7 6 6 6 6 6 6 7 11 12 13 15 17 18 18 18 18 17 17 17 17 17 17 18 19 20 21
8 8 8 8 8 8 8 8 8 8 8 7 7 6 7 7 7 6 6 7 7 7 7 7 8 7 7 7 8 7 5 7 8 8 7 8 7 8 8 7 8 8 8 9 8 9 10 10 8 8 7 6 7 7 7 7 6 6 8 7 6 5 6 7 7 7 9 12 13 15 17 18 18 18 18 17 16 16 17 17 17 18 20 21 22
8 8 9 9 9 9 9 9 9 9 9 8 8 8 9 9 8 9 8 8 8 8 8 8 8 8 8 9 9 9 8 9 9 8 8 8 9 8 9 9 9 10 9 9 10 10 10 10 9 8 7 7 7 7 6 6 7 7 7 7 7 7 7 7 7 7 8 11 14 16 17 17 17 16 16 16 16 16 16 17 18 19 20 22 24
9 8 8 8 9 9 9 10 10 10 10 10 10 10 9 9 10 9 9 9 9 10 10 10 9 9 9 10 10 9 9 9 9 9 9 10 9 9 10 9 9 9 8 8 9 9 10 11 10 8 8 8 8 8 8 8 7 7 7 7 7 7 8 8 7 7 11 13 14 15 15 14 14 15 15 14 15 15 16 18 19 19 21 23 24
9 9 9 8 8 10 10 11 11 11 10 10 11 11 11 10 10 10 10 10 10 10 10 10 11 10 10 11 11 10 10 10 10 10 10 11 9 9 11 10 9 8 9 9 9 10 10 11 10 10 9 8 8 8 7 7 7 7 7 7 7 7 7 7 6 6 6 6 7 7 8 10 11 12 13 14 15 16 17 18 19 21 22 23 24
9 9 9 10 9 10 11 10 11 11 11 10 10 11 11 11 11 11 10 11 11 10 10 11 11 11 11 11 11 11 11 11 11 11 10 10 9 10 11 10 9 9 9 9 9 10 10 10 10 10 10 9 9 9 7 6 7 7 8 8 7 5 6 7 8 6 6 8 10 12 11 10 12 11 13 15 16 17 18 19 21 22 22 22 22
10 10 10 10 9 9 10 10 11 10 10 10 10 11 10 11 10 10 11 11 11 11 11 11 11 11 12 12 12 12 12 12 12 11 11 10 9 9 10 9 9 10 10 10 9 10 10 10 10 10 8 8 8 8 7 7 7 8 7 6 7 7 8 7 7 8 7 8 8 7 7 8 9 11 13 14 15 17 19 20 20 20 21 21 21
8 9 9 9 9 10 10 10 10 9 9 10 9 9 10 11 11 11 11 11 11 12 11 12 12 12 12 12 12 12 13 14 15 13 12 9 8 10 9 9 10 10 10 10 9 9 9 9 10 9 8 9 9 8 8 8 8 7 5 5 8 8 8 7 7 7 7 8 7 7 8 8 8 9 9 9 10 15 16 18 16 18 18 17 18
9 8 9 9 9 10 10 10 10 9 9 8 11 15 13 10 10 9 9 11 11 12 12 11 12 12 13 12 11 16 16 16 16 17 17 16 16 13 11 9 10 10 10 10 10 10 9 10 10 9 9 10 9 8 8 8 6 5 6 6 8 7 7 8 8 6 5 7 8 9 8 8 10 11 10 12 11 11 10 10 9 12 15 20 21
9 9 8 9 10 10 11 10 10 9 9 9 15 14 16 18 13 10 10 11 11 11 12 12 12 12 11 12 12 13 15 16 16 19 16 17 17 19 20 19 16 12 10 11 11 10 10 10 9 9 10 10 9 7 7 6 5 6 6 6 7 7 7 8 9 6 3 2 6 9 11 10 10 12 11 11 11 10 10 10 15 18 19 21 22
9 8 9 10 10 9 9 10 10 10 10 12 14 16 17 18 16 12 11 10 10 11 11 12 11 11 12 11 10 9 10 13 11 12 15 19 19 19 21 20 20 21 19 14 10 10 10 10 10 10 9 10 8 6 6 5 6 5 6 7 7 8 8 9 8 9 6 7 9 12 14 10 10 11 12 10 11 11 10 13 18 20 20 21 22
7 8 10 9 10 9 9 10 10 10 10 12 13 16 17 18 19 16 11 11 11 12 11 12 12 12 11 10 10 9 9 13 12 12 11 11 16 19 19 19 19 20 20 22 20 15 10 10 10 10 9 8 7 6 5 5 4 7 7 8 7 7 9 11 10 10 8 7 11 13 15 10 9 12 12 10 10 10 10 13 17 19 20 21 22
8 8 9 10 9 9 9 10 9 9 10 10 14 16 16 18 18 17 13 13 12 12 13 12 11 12 12 11 10 10 9 9 10 11 11 12 10 10 12 13 13 14 18 20 19 19 16 11 10 10 8 6 7 5 4 3 6 7 7 8 8 10 11 11 10 9 10 9 11 13 14 11 9 10 11 10 9 10 10 13 18 19 20 21 22
8 9 9 9 9 9 9 8 8 9 8 11 13 15 16 17 18 16 12 11 11 12 12 13 13 13 12 11 11 11 10 9 8 10 10 10 10 9 10 10 11 11 11 11 12 11 12 12 13 10 7 5 5 6 5 5 7 7 8 10 11 9 8 8 10 11 11 10 12 10 14 11 8 10 11 11 10 10 9 13 17 18 20 21 22
7 7 8 8 9 9 9 8 8 10 9 11 13 15 16 17 17 11 11 12 12 12 12 12 12 11 11 11 11 11 11 11 11 12 12 10 10 11 11 11 10 10 10 7 6 7 9 9 8 6 5 4 4 5 6 6 6 8 8 6 5 6 8 9 11 10 12 10 9 9 12 12 8 11 12 10 10 11 10 11 14 18 20 22 22
8 8 8 8 7 8 8 9 10 10 9 11 13 15 16 17 13 10 11 10 11 12 12 11 11 11 11 12 12 11 11 12 12 13 16 14 11 12 11 11 9 8 8 5 6 7 6 6 7 6 8 9 11 12 14 15 8 3 4 6 8 9 10 11 12 11 12 7 6 8 11 13 9 9 12 11 11 12 12 12 12 16 19 20 21
8 9 7 7 7 8 9 9 10 10 9 10 12 13 16 17 15 11 10 10 11 11 11 10 10 10 12 14 13 12 12 11 11 13 15 13 11 11 11 11 10 9 8 5 4 5 8 8 9 9 10 10 11 11 3 5 3 1 5 9 10 8 10 11 14 12 9 7 8 8 10 11 9 9 11 12 12 11 11 11 11 12 16 17 18
9 7 6 7 6 6 8 9 10 11 10 11 12 13 16 17 14 10 10 9 10 11 9 9 10 9 10 11 16 15 13 13 13 13 15 14 11 11 10 9 9 9 8 7 7 6 5 5 5 6 7 8 8 7 6 1 1 2 4 4 5 6 10 12 10 9 9 7 4 3 8 9 9 10 9 11 12 9 8 11 10 8 9 10 10
Wind_Direction
187 201 212 209 204 202 210 214 230 234 225 226 216 198 169 181 176 127 115 136 136 139 144 134 140 162 159 152 152 131 108 99 84 79 84 84 68 38 41 47 44 51 62 77 89 96 97 89 88 80 77 75 73 75 75 75 73 72 68 65 62 59 59 58 58 56 54 50 47 45 41 38 34 29 25 22 19 15 13 15 17 14 10 8 7
175 173 192 211 218 214 217 222 232 234 225 222 197 180 180 173 139 143 135 127 142 135 140 128 124 149 144 132 113 101 93 84 69 58 69 75 71 55 43 45 44 44 59 71 75 70 67 71 71 74 71 68 66 66 70 71 72 71 71 67 64 60 57 56 55 54 53 51 49 46 42 38 33 28 22 18 16 13 10 16 14 13 12 8 7
138 162 155 203 218 153 47 8 259 237 227 226 196 182 182 176 159 162 144 148 138 129 119 100 68 56 68 65 68 76 72 67 66 64 69 63 67 64 52 48 46 46 49 63 61 61 60 64 65 65 67 69 69 69 70 69 70 73 72 70 67 63 59 57 55 54 51 50 47 44 41 38 35 30 25 19 15 13 6 8 9 9 8 7 7
93 83 64 68 71 61 55 62 44 317 235 231 199 197 164 133 158 166 141 128 117 96 77 76 57 47 40 41 43 51 51 49 56 57 57 63 61 57 51 49 50 50 46 50 61 64 67 63 63 65 68 69 67 68 69 70 71 72 71 68 63 58 57 56 54 52 49 47 44 41 39 37 35 31 27 22 16 16 11 13 13 10 7 6 4
76 88 93 102 110 105 84 62 39 3 322 141 184 160 134 163 149 101 90 85 77 71 70 62 66 60 55 45 45 43 40 44 38 23 20 35 52 55 51 43 42 48 49 49 55 62 62 66 65 64 61 61 65 66 64 64 65 66 66 63 61 57 54 52 51 50 47 44 41 39 37 36 34 31 28 22 16 19 17 15 14 11 9 8 7
20 82 106 114 105 92 100 77 54 34 10 79 93 121 147 118 112 90 86 90 93 93 86 72 61 56 60 59 53 45 41 45 41 40 26 23 25 35 41 42 39 39 42 48 52 59 61 60 62 62 60 59 56 54 53 54 58 58 57 58 58 56 49 47 46 47 44 41 38 35 32 31 31 27 24 23 20 18 17 14 13 11 9 8 7
11 42 54 59 84 97 99 98 88 56 13 55 81 65 55 63 73 95 92 81 78 69 85 87 81 65 54 58 58 54 47 50 41 42 35 29 30 34 34 36 36 35 38 38 44 50 56 61 61 59 59 60 56 52 53 54 52 56 57 54 52 52 50 42 42 41 39 37 35 32 28 28 25 23 22 21 22 19 15 13 11 9 8 7 5
12 26 56 59 73 79 73 89 97 97 59 2 72 80 79 68 40 79 105 91 87 75 70 82 81 76 67 65 63 57 52 46 47 46 36 33 29 27 32 34 31 31 30 35 41 43 47 51 55 54 53 51 52 49 48 50 50 49 55 55 50 48 49 43 38 37 37 34 31 27 25 26 23 21 20 19 19 17 15 12 9 7 6 4 2
12 31 47 59 68 74 69 71 84 91 99 73 72 60 92 91 81 50 76 101 90 91 77 73 79 74 72 68 64 70 62 53 51 52 47 48 41 34 34 31 30 28 28 32 33 40 44 47 50 50 49 48 48 50 49 48 49 48 45 50 50 43 41 42 35 35 33 31 28 23 21 24 22 20 17 16 16 13 10 8 6 4 2 0 360
18 26 44 49 56 63 59 53 63 81 89 79 83 82 71 102 105 100 97 103 100 99 96 87 81 79 70 66 63 66 65 61 64 59 55 51 44 42 35 36 30 28 23 25 32 32 30 34 40 46 44 44 49 48 43 40 38 38 38 37 40 40 38 39 37 33 32 29 26 23 19 19 18 16 15 13 12 10 7 4 2 1 359 358 357
25 28 34 36 49 54 57 52 65 81 88 94 93 98 91 81 98 95 70 60 89 105 108 103 92 85 78 71 71 70 70 71 67 63 60 60 54 40 29 30 35 29 24 21 27 30 30 35 35 38 41 35 36 37 35 36 36 33 33 31 27 32 34 36 33 32 29 27 23 20 17 17 15 14 13 11 9 7 3 1 359 357 356 355 354
37 25 20 13 24 40 63 60 63 84 90 94 115 108 109 103 94 100 95 83 75 89 102 105 93 82 81 71 62 63 65 62 60 59 62 55 57 52 46 52 40 35 30 26 26 27 31 32 36 39 37 34 34 34 36 34 37 35 32 27 27 26 23 28 30 27 25 23 20 16 13 13 13 11 10 8 5 3 1 358 356 354 354 353 351
39 31 15 2 16 40 52 71 76 89 94 87 91 108 106 111 111 97 112 109 99 106 98 96 101 86 79 84 79 68 69 64 59 53 48 51 52 57 50 47 47 45 33 31 29 29 30 32 32 31 29 29 28 26 32 36 33 35 30 27 21 21 21 19 23 23 22 19 17 12 9 9 10 8 5 3 1 359 357 355 352 351 350 349 348
40 35 15 359 8 40 53 59 78 84 91 92 90 96 99 99 114 108 80 110 118 138 149 127 66 121 127 103 85 85 74 69 68 62 61 55 54 55 49 45 43 40 38 36 33 31 33 33 31 28 24 24 22 22 26 29 25 28 32 26 22 16 17 16 20 20 19 13 13 9 4 3 5 3 1 358 357 355 353 351 349 346 346 346 345
42 42 27 348 357 31 51 49 53 69 85 95 98 88 87 91 85 110 107 44 96 80 182 305 126 118 117 110 128 107 73 68 62 55 52 52 50 52 52 57 51 46 44 43 43 39 37 32 30 28 27 21 19 21 20 19 19 20 27 23 18 17 7 17 15 17 15 10 10 5 3 357 359 359 357 355 353 352 349 348 347 344 343 344 342
26 32 13 332 326 343 31 49 55 52 76 85 79 79 82 87 100 104 118 123 111 61 358 74 122 133 123 48 137 122 114 91 90 64 57 51 53 51 47 51 53 50 50 48 48 45 43 38 31 27 25 21 17 19 21 16 14 16 25 23 19 15 5 13 11 10 14 8 6 4 360 355 353 355 353 352 350 348 347 346 344 343 340 340 340
23 22 6 339 356 19 38 48 51 46 60 75 76 76 75 86 98 118 122 132 124 114 55 12 22 334 126 127 95 227 145 131 124 70 44 59 45 47 45 47 53 55 67 68 62 57 52 45 40 33 27 23 20 18 20 17 16 9 17 17 17 14 11 9 7 8 6 3 1 360 358 353 350 350 350 349 347 344 343 341 340 338 337 337 338
29 16 5 7 20 22 28 40 43 40 48 67 80 83 82 98 85 107 107 96 123 120 133 123 8 8 6 353 41 219 146 171 163 131 84 71 64 49 41 44 54 63 76 77 74 73 59 50 45 40 29 26 24 20 18 21 17 16 17 8 11 12 10 6 5 6 3 359 359 356 355 351 346 346 345 344 343 341 337 336 335 333 332 333 333
25 23 26 31 33 33 35 38 37 37 41 57 64 65 68 69 89 104 115 124 133 128 146 142 126 47 33 358 143 139 143 149 174 120 135 141 148 144 129 86 61 62 72 68 81 95 78 63 53 51 46 36 30 23 17 19 16 12 14 9 10 9 9 4 360 3 0 359 355 354 351 347 343 342 343 341 339 337 335 334 335 331 332 332 332
23 25 24 30 38 43 42 45 48 44 44 46 59 71 81 64 54 65 96 120 140 139 141 167 164 123 43 99 99 115 134 12 147 163 145 151 158 154 174 196 185 143 84 97 96 92 100 89 52 42 49 43 35 29 24 18 17 13 13 3 5 4 3 2 357 357 358 356 349 350 347 344 341 340 339 337 334 334 333 331 330 331 331 330 331
24 21 23 28 33 36 38 45 50 51 53 56 51 52 57 63 63 65 63 62 54 76 118 118 115 123 120 102 111 112 108 121 144 142 140 142 143 176 168 178 208 183 187 175 125 89 78 77 60 30 42 38 32 27 22 18 16 8 6 357 359 360 358 359 358 353 355 352 349 347 344 342 338 336 335 332 329 329 329 330 329 328 328 328 328
17 16 20 23 27 31 37 43 48 56 59 64 63 60 55 56 52 57 55 66 53 54 69 79 83 106 119 136 128 128 124 135 158 142 114 142 165 175 175 177 182 168 176 189 202 173 153 163 162 81 24 32 28 24 17 18 16 6 351 349 356 356 355 355 355 353 351 349 349 347 344 339 336 335 332 330 326 327 328 328 326 323 324 326 325
20 25 22 16 29 34 40 47 54 53 57 60 67 74 77 76 71 68 60 66 76 85 86 86 102 89 59 102 141 165 174 174 170 173 165 140 132 149 166 194 166 154 172 180 197 196 184 223 222 133 359 24 27 12 11 2 21 6 346 350 352 355 354 352 352 350 350 347 345 344 338 336 334 333 332 329 328 327 327 327 324 322 321 321 322
20 28 21 9 15 24 30 41 45 45 49 50 50 57 65 71 70 70 70 64 68 73 78 81 76 82 66 56 67 59 61 85 112 157 164 150 148 147 157 148 169 157 120 175 203 219 213 213 209 210 208 231 20 1 358 353 17 17 351 346 348 350 349 348 346 345 344 343 341 338 336 333 333 331 330 329 328 327 325 324 321 320 319 320 319
17 20 19 6 8 21 21 28 36 36 35 44 45 46 59 67 70 70 65 59 52 52 70 55 47 72 75 45 48 49 51 26 28 60 67 99 129 133 115 134 171 143 141 197 196 200 217 212 185 206 197 212 342 354 1 357 353 10 349 337 338 343 344 344 343 341 341 339 339 338 336 332 331 330 329 329 328 326 324 321 319 319 319 320 319
15 18 358 353 22 25 31 38 37 35 37 40 42 37 38 57 59 65 67 65 65 66 72 64 60 52 51 62 47 49 43 29 30 43 57 91 111 119 128 110 35 147 147 201 208 237 197 208 210 209 213 222 322 347 357 349 336 5 335 314 320 331 334 338 338 335 334 334 333 334 332 332 329 327 327 326 324 323 322 320 319 318 318 319 316
12 24 351 2 12 23 29 38 37 41 40 47 41 46 44 60 61 61 61 59 60 69 71 66 66 61 61 73 77 64 55 39 44 49 44 56 96 124 140 143 157 195 203 197 209 229 234 179 197 200 204 217 233 303 332 338 319 326 307 305 309 314 320 328 330 328 328 330 330 329 329 328 327 323 323 322 321 319 318 317 317 317 318 317 313
139 331 347 347 9 23 32 41 38 46 53 53 57 66 59 74 80 74 76 44 78 81 90 89 84 84 85 89 95 90 80 73 67 66 63 58 72 85 57 282 230 182 188 232 219 226 178 217 180 191 191 203 228 276 309 292 300 343 297 303 306 309 314 323 324 322 324 326 326 326 326 326 325 322 320 320 318 317 316 317 317 316 315 313 313
173 184 190 197 200 222 128 112 79 76 78 72 69 81 86 100 103 109 115 111 108 100 96 101 101 103 97 86 102 108 102 98 96 91 89 88 76 56 18 33 2 304 271 255 256 245 174 185 276 163 174 221 265 292 294 296 309 322 304 296 298 298 312 320 317 315 318 321 322 324 323 322 321 321 319 318 317 316 316 316 317 315 315 317 316
218 202 206 194 194 199 188 164 153 147 135 136 131 128 132 120 123 121 108 122 122 124 120 123 125 120 121 120 126 132 133 142 130 124 137 132 140 131 114 81 9 337 323 300 296 284 267 186 224 263 191 226 257 282 289 291 288 276 298 292 293 292 311 307 303 302 309 316 320 320 319 319 319 319 318 315 315 315 316 316 315 315 315 315 316
232 225 221 220 213 201 204 186 179 172 175 168 171 172 176 152 162 153 162 174 167 152 154 149 153 158 156 159 172 160 165 169 169 173 168 190 177 182 176 185 205 218 266 276 277 282 187 267 247 219 249 269 276 275 270 269 253 249 283 284 280 295 295 286 283 291 297 306 313 314 315 315 315 315 315 313 313 314 314 314 315 317 316 317 317
233 235 235 236 229 225 217 212 198 195 193 190 198 192 201 186 193 185 177 196 191 184 174 183 186 199 190 197 201 202 190 199 200 200 200 202 209 210 205 213 216 219 233 249 255 266 262 262 267 264 239 249 263 272 271 265 248 220 262 274 282 281 278 292 289 289 294 300 307 311 312 312 312 312 311 312 312 312 311 312 314 315 317 316 315
227 228 233 235 235 234 230 224 222 214 209 206 206 206 221 209 212 208 190 206 209 213 200 201 207 221 220 224 221 225 215 228 224 217 221 218 220 231 230 229 232 224 223 240 254 267 270 263 263 264 264 247 259 258 263 261 266 268 260 267 271 274 281 283 289 287 288 294 299 305 307 307 307 306 307 309 309 308 310 311 312 313 313 312 311
220 223 227 228 231 231 231 230 229 227 222 221 213 218 224 218 219 209 213 213 218 221 216 223 215 218 229 234 238 234 225 231 241 237 232 229 225 233 232 230 236 235 224 236 252 260 270 275 268 257 254 236 262 260 259 266 266 273 274 274 268 262 267 276 280 282 283 285 291 296 301 302 302 302 302 304 305 309 310 311 311 311 311 310 310
217 219 223 225 225 226 228 231 231 229 227 225 223 221 226 227 226 220 218 222 223 223 221 225 224 217 220 228 236 235 222 225 231 237 236 234 230 232 236 233 235 238 234 228 244 257 263 266 267 271 265 255 251 266 267 267 268 267 271 269 266 266 261 268 271 272 272 276 281 290 293 294 296 297 297 299 302 304 305 307 308 308 309 310 311
221 215 218 224 224 223 228 229 230 230 227 225 225 223 228 229 230 231 225 223 227 231 232 232 230 225 223 228 231 231 228 231 232 231 232 231 234 236 239 240 237 239 240 236 233 250 262 270 263 259 262 266 263 262 265 261 260 264 265 273 269 264 267 266 267 269 269 273 278 281 286 291 292 290 290 292 294 296 298 300 301 303 306 307 306
225 221 218 217 223 224 224 226 228 230 228 226 227 227 227 229 232 234 233 231 230 232 234 236 237 236 235 234 236 233 231 238 241 235 232 229 230 236 242 243 241 240 239 238 240 241 251 257 263 258 256 256 261 267 268 273 273 268 267 264 268 270 273 274 272 269 273 274 274 275 279 283 283 282 283 284 287 290 291 293 298 301 302 301 300
227 223 224 216 214 223 225 227 229 231 229 226 227 228 229 228 229 233 236 236 236 235 235 235 236 235 238 240 239 236 234 235 242 244 239 234 231 234 239 243 243 242 241 242 242 243 244 252 257 264 250 248 254 251 252 251 265 276 277 275 273 268 268 271 269 274 280 281 287 283 281 279 273 274 275 281 285 287 290 293 295 296 296 296 297
226 227 224 225 222 223 228 228 229 229 230 227 227 228 229 229 229 230 232 234 237 237 236 235 234 235 236 238 239 235 233 234 238 240 241 236 231 232 235 239 240 240 243 243 243 242 242 250 252 250 256 250 246 258 250 239 248 260 278 283 277 266 268 273 281 279 281 282 275 273 272 273 279 281 281 282 287 286 284 288 293 293 291 291 292
223 226 226 223 226 222 228 230 230 229 228 229 229 228 227 227 228 230 230 232 234 236 236 235 234 234 235 235 236 235 234 234 234 238 237 240 235 236 237 234 233 236 241 245 243 243 246 245 246 252 245 251 247 243 244 241 251 253 238 252 276 288 285 280 275 283 284 282 285 283 272 273 273 272 279 283 280 282 285 290 288 286 285 287 289
218 223 225 225 225 226 227 228 230 225 225 228 227 223 223 225 227 231 231 231 233 237 239 237 235 233 234 236 236 236 231 234 235 237 238 236 239 245 243 235 234 235 241 243 243 245 246 245 249 245 247 246 247 248 246 238 241 259 278 279 276 274 279 281 277 271 274 281 285 286 290 292 287 286 289 289 287 286 285 284 283 279 281 285 291
218 217 220 222 224 229 230 228 224 223 223 225 224 223 222 228 226 227 230 233 233 236 239 241 239 234 232 232 232 233 235 236 237 239 240 240 239 241 248 246 240 239 238 241 242 241 244 246 245 245 248 245 244 242 246 252 264 270 264 263 272 283 286 279 278 265 282 294 293 290 284 285 289 290 287 286 287 282 281 283 281 284 288 291 293
216 214 210 218 220 224 227 227 224 221 223 225 227 220 221 224 231 237 236 237 235 235 236 238 241 240 235 232 236 233 231 236 237 237 234 232 231 232 236 241 245 246 246 242 243 239 242 247 249 246 247 253 251 250 253 263 262 259 268 273 277 281 280 291 292 295 273 180 287 289 286 289 288 286 284 280 282 280 276 275 280 283 286 290 293
217 209 213 218 221 219 222 226 228 227 228 227 220 221 220 221 218 228 237 240 237 236 236 236 240 242 241 238 235 233 228 229 229 232 228 228 231 231 232 233 234 237 240 244 249 247 241 246 249 245 247 251 258 248 254 256 263 267 266 270 269 274 281 280 284 285 297 304 298 296 289 285 278 279 281 277 275 273 269 272 276 280 283 286 291
210 210 219 217 220 218 218 224 228 228 231 228 216 218 219 219 219 218 234 236 237 238 235 235 238 240 241 240 241 236 234 224 227 235 239 235 225 228 232 235 236 236 238 237 238 242 255 253 250 253 245 257 259 257 261 269 283 275 274 267 266 271 278 280 279 282 283 302 299 291 289 287 287 283 278 277 272 272 271 270 272 275 279 284 287
216 222 225 223 221 217 216 220 231 234 233 224 212 219 220 219 219 218 231 234 237 239 237 233 234 237 237 238 240 243 242 228 223 228 231 237 242 234 231 234 238 236 234 236 237 235 236 247 253 253 254 248 258 276 283 263 265 270 275 276 281 283 276 273 279 279 283 286 283 294 286 283 282 281 279 281 277 275 271 272 274 276 280 282 285
218 219 222 222 223 220 220 219 230 242 238 229 214 218 220 220 222 220 230 232 236 240 240 236 235 237 237 237 238 245 247 241 225 214 224 231 235 237 238 237 235 237 234 228 223 228 230 230 241 249 256 261 263 273 275 264 260 265 273 281 284 282 283 277 269 264 270 277 284 281 277 285 288 284 281 285 284 278 276 276 275 276 279 281 285
228 229 236 228 232 227 223 219 225 242 246 225 205 218 220 221 219 220 228 232 235 238 240 238 235 235 236 235 238 239 241 241 232 209 216 229 237 239 239 239 239 235 233 227 227 220 226 226 227 236 246 258 258 263 273 276 273 276 282 283 275 268 273 276 275 283 282 285 262 260 274 282 290 286 286 284 284 280 279 277 277 278 279 281 285
227 224 222 218 222 226 223 217 224 238 249 229 207 215 220 219 215 223 226 229 233 236 237 237 236 236 232 231 230 237 238 240 232 209 210 211 233 236 237 236 234 228 226 186 168 188 206 223 238 244 250 250 254 259 263 268 281 283 266 274 271 279 282 283 284 284 282 281 261 255 274 284 288 286 289 287 287 285 281 276 275 275 276 279 283
229 230 221 220 220 223 222 225 220 229 243 235 214 210 217 215 209 219 223 227 232 234 237 233 234 233 232 224 227 235 240 239 231 207 211 203 224 231 234 234 230 225 220 189 157 192 207 224 236 244 250 259 263 273 266 119 133 316 262 265 281 287 280 279 284 286 285 279 270 267 271 272 291 292 293 293 288 273 271 271 272 275 278 276 278
236 237 220 222 225 218 218 224 223 228 243 247 230 210 215 214 210 219 223 229 234 235 232 233 230 231 235 227 220 226 232 239 231 214 212 208 224 228 227 224 226 222 214 185 180 183 187 200 222 228 243 243 248 242 235 148 229 260 266 274 285 271 277 281 278 287 288 272 268 241 268 281 293 292 300 303 294 279 257 268 273 271 273 280 281